Tracking 18852 objects as of 23-Nov-2017
HD Live streaming from Space Station
objects crossing your sky now

SYMPHONIE 1

Track SYMPHONIE 1 now!
SYMPHONIE 1 is classified as:


NORAD ID: 7578
Int'l Code: 1974-101A
Perigee: 35,857.9 km
Apogee: 35,913.4 km
Inclination: 11.8 °
Period: 1,440.8 minutes
Semi major axis: 42256 km
RCS: 1.2872 m2 (large)
Launch date: December 19, 1974
Source: France/Germany (FGER)
Launch site: AIR FORCE EASTERN TEST RANGE (AFETR)
aabbcc
Your satellite tracking list
Your tracking list is empty




NASA's NSSDC Master Catalog

Two Line Element Set (TLE):
1 07578U 74101A   17325.46296111 -.00000171  00000-0  00000+0 0  9997
2 07578  11.7979 316.2800 0006564 293.1781 252.2443  0.99944851 86347
Source of the keplerian elements: AFSPC